sat.trackr.live / text

‹ back to catalog

STARLINK-2235

NORAD 48581 · 2021-041AE

PAYLOAD ACTIVE UNKNOWN

§ Identity

Operator
Country
US
Launch date
2021-05-15
Launch site
AFETR
Launch vehicle
Mass (kg)
RCS (m²)

Purposes: comms

External: N2YO · Heavens-Above · Gunter

§ Orbital elements

Epoch: 2026-09-19T16:00:16.564032Z

Period
94.01 min
Inclination
53.1596°
Eccentricity
0.0001173
Mean motion
15.31699219 rev/d
Perigee alt
469.9 km
Apogee alt
471.5 km
Semi-major
6,848.9 km
B*
-1.8398e-5
RAAN
281.1154°
Arg perigee
75.5381°
Mean anomaly
284.5751°
Rev number
29,531

§ Raw data

STARLINK-22351 48581U 21041AE  26262.66685838 -.00000936  00000+0 -18398-4 0  99942 48581  53.1596 281.1154 0001173  75.5381 284.5751 15.31699219295318

JSON: /api/v1/satellites/48581 · /tle

For live sub-satellite position, see the globe view (requires WebGL).

§ Visibility from observer

Set your observer location to see the next 7 days of passes ≥ 10°. The values pass through the URL so the page stays shareable.

No JS? Fill the form by hand. The geolocation button needs JavaScript.